Header for Extended Forecast Station List Page

Search by: ID | Name | Date | Parm | Value | Avg | % Avg
Sort by: ID | Name | Date | Parm | Value | Avg | % Avg

Enter search or view all records.

Click on id for station plot
#IDNameDateParmValueAvg% Avg
0MYKO3MCKAY CREEK-NEAR PILOT ROCK06-14-2021DISCHARGE (KAF)0150
1RIDI1WILLOW CREEK-RIRIE DAM06-14-2021INFLOW (KAF)1719
2WRMO3MALHEUR-WARM SPRINGS DAM06-14-2021INFLOW (KAF)22105
3TCHW1WALLA WALLA-NEAR TOUCHET06-14-2021DISCHARGE (KAF)31027
4HOTI1BRUNEAU-NEAR HOT SPRINGS06-14-2021DISCHARGE (KAF)74915
5LWRI1LITTLE WOOD-LITTLE WOOD DAM06-14-2021INFLOW (KAF)72625
6BERO3MALHEUR-AGENCY VALLEY DAM06-14-2021INFLOW (KAF)7974
7MAGI1BIG WOOD-MAGIC DAM06-14-2021INFLOW (KAF)87910
8PIHI1PORTNEUF-AT POCATELLO06-14-2021DISCHARGE (KAF)92437
9GIBO3UMATILLA-NEAR GIBBON06-14-2021DISCHARGE (KAF)121585
10PDTO3UMATILLA-AT PENDLETON06-14-2021DISCHARGE (KAF)131681
11DEDI1DEADWOOD-NEAR LOWMAN06-14-2021INFLOW (KAF)185236
12SATI1ST MARIES-NEAR SANTA06-14-2021DISCHARGE (KAF)202870
13DLGM8CLARK FORK-AT DEER LODGE06-14-2021DISCHARGE (KAF)234848
14TNAW1TEANAWAY-BELOW FORKS06-14-2021DISCHARGE (KAF)2318134
15BUDW1BUMPING-BUMPING LAKE DAM06-14-2021INFLOW (KAF)274856
16HWRI1BIG LOST-AT HOWELL RANCH NEAR CHILLY06-14-2021DISCHARGE (KAF)3010030
17MACI1BIG LOST-MACKAY RESERVOIR NEAR MACKAY06-14-2021INFLOW (KAF)318836
18OWYO3OWYHEE-OWYHEE DAM06-14-2021INFLOW (KAF)336154
19UMAO3UMATILLA-NEAR UMATILLA06-14-2021DISCHARGE (KAF)3931407
20STRM8ST. REGIS-NEAR ST. REGIS06-14-2021DISCHARGE (KAF)426465
21CHEI1FALL RIVER-NEAR CHESTER06-14-2021DISCHARGE (KAF)4213032
22MONO3NF JOHN DAY-AT MONUMENT06-14-2021DISCHARGE (KAF)428351
23KADW1KACHESS-KACHESS DAM06-14-2021INFLOW (KAF)4429150
24KEDW1YAKIMA-KEECHELUS LAKE06-14-2021INFLOW (KAF)4536123
25HALI1BIG WOOD-AT HAILEY06-14-2021DISCHARGE (KAF)4512636
26SERO3JOHN DAY-AT SERVICE CK06-14-2021DISCHARGE (KAF)5311944
27WSRI1WEISER-NEAR WEISER06-14-2021DISCHARGE (KAF)548465
28CSDI1NF PAYETTE-CASCADE DAM06-14-2021INFLOW (KAF)5914241
29ARAI1SF BOISE-ANDERSON RANCH DAM06-14-2021INFLOW (KAF)6216937
30ARDW1ENTIAT-NEAR ARDENVOIR06-14-2021DISCHARGE (KAF)769778
31EASW1YAKIMA-AT EASTON06-14-2021DISCHARGE (KAF)8079102
32DRMM8CLARK FORK-NR DRUMMOND06-14-2021DISCHARGE (KAF)82MM
33HODO3HOOD-NEAR TUCKER BRIDGE06-14-2021DISCHARGE (KAF)8710285
34RCCM8ROCK CREEK-NEAR CLINTON06-14-2021DISCHARGE (KAF)10513876
35RILW1TIETON-RIMROCK LAKE NEAR RIMROCK06-14-2021INFLOW (KAF)10710998
36IPDI1HENRYS FORK-ISLAND PARK DAM06-14-2021INFLOW (KAF)10816466
37PARW1YAKIMA-NEAR PARKER06-14-2021DISCHARGE (KAF)12213193
38CLFW1NACHES-NEAR CLIFFDEL06-14-2021DISCHARGE (KAF)14115293
39UNDW1WHITE SALMON-NEAR UNDERWOOD06-14-2021DISCHARGE (KAF)15218881
40TEAI1TETON-NEAR ST. ANTHONY06-14-2021DISCHARGE (KAF)16324666
41JLKW4SNAKE-JACKSON LAKE AT DAM06-14-2021INFLOW (KAF)17042140
42PITW1KLICKITAT-NEAR PITT06-14-2021DISCHARGE (KAF)17524073
43BIGI1BOISE-AT GLENWOOD BRIDGE06-14-2021DISCHARGE (KAF)18423777
44PARI1BOISE-NEAR PARMA06-14-2021DISCHARGE (KAF)18723779
45CLUW1CLE ELUM-CLE ELUM LAKE06-14-2021INFLOW (KAF)206152136
46PRTI1PRIEST-NEAR PRIEST RIVER06-14-2021DISCHARGE (KAF)20824984
47NACW1NACHES-NEAR NACHES06-14-2021DISCHARGE (KAF)21823792
48LAUW1KETTLE-AT LAURIER06-14-2021DISCHARGE (KAF)22750745
49REXI1HENRYS FORK-AT REXBURG06-14-2021DISCHARGE (KAF)23242255
50ANTI1HENRYS FORK-AT ST. ANTHONY06-14-2021DISCHARGE (KAF)23636066
51PATW1METHOW-NEAR PATEROS06-14-2021DISCHARGE (KAF)27036075
52TRYO3GRANDE RONDE-TROY06-14-2021DISCHARGE (KAF)28739972
53COEI1COEUR D ALENE-COEUR D ALENE LAKE06-14-2021INFLOW (KAF)29445065
54BITM8BITTERROOT-NEAR MISSOULA06-14-2021DISCHARGE (KAF)30356054
55BONM8BLACKFOOT-NEAR BONNER06-14-2021DISCHARGE (KAF)31636986
56EMMI1PAYETTE-NEAR EMMETT06-14-2021DISCHARGE (KAF)32860954
57SPOW1SPOKANE-AT SPOKANE06-14-2021DISCHARGE (KAF)353MM
58KIOW1YAKIMA-AT KIONA06-14-2021DISCHARGE (KAF)43245794
59WGCM8MF FLATHEAD-NEAR WEST GLACIER06-14-2021DISCHARGE (KAF)45670465
60TONW1OKANOGAN-NEAR TONASKET06-14-2021DISCHARGE (KAF)46766670
61DWRI1NF CLEARWATER-DWORSHAK DAM06-14-2021INFLOW (KAF)47175662
62FCFM8NF FLATHEAD-NEAR COLUMBIA FALLS06-14-2021DISCHARGE (KAF)48175364
63HHWM8SF FLATHEAD-HUNGRY HORSE DAM06-14-2021INFLOW (KAF)48673067
64LLKW1SPOKANE-AT LONGLAKE06-14-2021INFLOW (KAF)50680463
65CHDW1CHELAN-LAKE CHELAN DAM06-14-2021INFLOW (KAF)51054793
66ABOM8CLARK FORK-ABOVE MISSOULA06-14-2021DISCHARGE (KAF)53069676
67LUCI1BOISE-LUCKY PEAK DAM06-14-2021INFLOW (KAF)544MM
68BFTI1SNAKE-NEAR BLACKFOOT06-14-2021DISCHARGE (KAF)57078273
69SNAI1SNAKE-AT BLACKFOOT06-14-2021DISCHARGE (KAF)59285969
70PESW1WENATCHEE-AT PESHASTIN06-14-2021DISCHARGE (KAF)60867690
71ORFI1CLEARWATER-AT OROFINO06-14-2021DISCHARGE (KAF)712138851
72UMTW1YAKIMA-AT UMTANUM06-14-2021DISCHARGE (KAF)721713101
73JKSW4SNAKE-NEAR JACKSON06-14-2021DISCHARGE (KAF)823132862
74BELM8CLARK FORK-BELOW MISSOULA06-14-2021DISCHARGE (KAF)829128664
75ALPW4SNAKE-NEAR ALPINE06-14-2021DISCHARGE (KAF)977161960
76SRGM8CLARK FORK-AT ST REGIS06-14-2021DISCHARGE (KAF)1048166763
77MODO3DESCHUTES-AT MOODY NR BIGGS06-14-2021DISCHARGE (KAF)1062110696
78AFRI1SNAKE-AMERICAN FALLS RESERVOIR06-14-2021INFLOW (KAF)1108142278
79SHYI1SNAKE-NEAR SHELLEY06-14-2021DISCHARGE (KAF)1155136085
80PLDI1SF SNAKE-PALISADES DAM06-14-2021INFLOW (KAF)1259216858
81SIFI1SNAKE-AB EAGLE ROCK NR IDAHO FALLS06-14-2021DISCHARGE (KAF)1329169778
82WHBI1SALMON-AT WHITEBIRD06-14-2021DISCHARGE (KAF)1402275551
83SWAI1SNAKE-BELOW SWAN FALLS06-14-2021DISCHARGE (KAF)1421196272
84CFMM8FLATHEAD-AT COLUMBIA FALLS06-14-2021DISCHARGE (KAF)1606221273
85KERM8FLATHEAD-SELI’Š KSANKA QLISPE’ DAM06-14-2021INFLOW (KAF)1802270567
86LEOI1KOOTENAI-AT LEONIA06-14-2021DISCHARGE (KAF)1867350853
87WEII1SNAKE-AT WEISER06-14-2021DISCHARGE (KAF)2180309870
88BRNI1SNAKE-BROWNLEE DAM06-14-2021INFLOW (KAF)2306320872
89SPDI1CLEARWATER-AT SPALDING06-14-2021DISCHARGE (KAF)23182277102
90HEII1SNAKE-NEAR HEISE06-14-2021DISCHARGE (KAF)2333246895
91LYDM8KOOTENAI-LIBBY DAM06-14-2021INFLOW (KAF)2590372270
92NOXM8CLARK FORK-NOXON RAPIDS DAM06-14-2021INFLOW (KAF)3377484070
93CABI1CLARK FORK-CABINET GORGE DAM06-14-2021INFLOW (KAF)3712517972
94ALFW1PEND OREILLE-ALBENI FALLS DAM06-14-2021INFLOW (KAF)3792561668
95ANAW1SNAKE-NEAR ANATONE06-14-2021DISCHARGE (KAF)4376674265
96LGSW1SNAKE-LITTLE GOOSE DAM06-14-2021INFLOW (KAF)6632910673
97LMNW1SNAKE-LOWER MONUMENTAL DAM06-14-2021INFLOW (KAF)6687912273
98LGDW1SNAKE-LOWER GRANITE DAM06-14-2021INFLOW (KAF)6694908374
99IHDW1SNAKE-ICE HARBOR DAM06-14-2021INFLOW (KAF)6699905474
100CIBW1COLUMBIA-AT INTL BOUNDARY06-14-2021DISCHARGE (KAF)21049MM
101CHJW1COLUMBIA-CHIEF JOSEPH DAM06-14-2021INFLOW (KAF)216202558085
102GCDW1COLUMBIA-GRAND COULEE DAM06-14-2021INFLOW (KAF)218373158069
103WELW1COLUMBIA-WELLS DAM06-14-2021INFLOW (KAF)223632683883
104RRHW1COLUMBIA-ROCKY REACH DAM06-14-2021INFLOW (KAF)228692745683
105WANW1COLUMBIA-WANAPUM DAM06-14-2021INFLOW (KAF)235493207273
106PRWW1COLUMBIA-PRIEST RAPIDS DAM06-14-2021INFLOW (KAF)235543268872
107MCDW1COLUMBIA-MCNARY DAM06-14-2021INFLOW (KAF)308114281872
108JDAO3COLUMBIA-JOHN DAY DAM06-14-2021INFLOW (KAF)313274345672
109TDAO3COLUMBIA-THE DALLES DAM06-14-2021INFLOW (KAF)317453988280
110BONO3COLUMBIA-BONNEVILLE DAM06-14-2021INFLOW (KAF)321704096579
111BFEI1KOOTENAI-AT BONNERS FERRY06-14-2021STAGE (FT)MMM
112HOPI1PEND OREILLE-PEND OREILLE LAKE NR HOPE06-14-2021LAKE ELEVATION (FT)MMM
113SJMI1ST JOE-AT ST MARIES06-14-2021STAGE (FT)MMM
114MILI1SNAKE-AT MILNER06-14-2021DISCHARGE (KAF)M80M
115BULO3BULLY CREEK-BULLY CREEK DAM06-14-2021INFLOW (KAF)M0M